| time (UTC) | temp C | wind direction | speed KPH | gust KPH | rain 1hr cm | rain 24hr cm | rain mn cm | humidity % | barometer mb |
| 20260505124534 | 15 | 231 | 1.6 | 4.8 | 0.00 | 0.15 | 0.15 | 89 | 1008.5 |
| 20260505123029 | 14 | 257 | 1.6 | 4.8 | 0.00 | 0.15 | 0.15 | 90 | 1008.6 |
| 20260505121536 | 13 | 244 | 1.6 | 8.0 | 0.00 | 0.15 | 0.15 | 91 | 1008.7 |
| 20260505120036 | 13 | 244 | 1.6 | 12.9 | 0.00 | 0.15 | 0.15 | 92 | 1008.6 |
| 20260505114538 | 13 | 151 | 3.2 | 8.0 | 0.00 | 0.15 | 0.15 | 92 | 1008.6 |
| 20260505113029 | 13 | 252 | 3.2 | 8.0 | 0.03 | 0.15 | 0.15 | 92 | 1008.7 |
| 20260505111538 | 13 | 233 | 1.6 | 4.8 | 0.05 | 0.15 | 0.15 | 92 | 1008.6 |
| 20260505101534 | 14 | 246 | 1.6 | 9.7 | 0.08 | 0.08 | 0.08 | 87 | 1009.0 |
| 20260505100042 | 15 | 208 | 3.2 | 12.9 | 0.03 | 0.03 | 0.03 | 82 | 1009.1 |
| 20260505094532 | 17 | 193 | 4.8 | 17.7 | 0.00 | 0.00 | 0.00 | 71 | 1009.3 |
| 20260505093035 | 17 | 248 | 4.8 | 9.7 | 0.00 | 0.00 | 0.00 | 63 | 1008.3 |
| 20260505091551 | 17 | 253 | 3.2 | 9.7 | 0.00 | 0.00 | 0.00 | 62 | 1007.9 |
| 20260505090050 | 17 | 239 | 4.8 | 11.3 | 0.00 | 0.00 | 0.00 | 62 | 1007.4 |
| 20260505084537 | 17 | 297 | 3.2 | 14.5 | 0.00 | 0.00 | 0.00 | 62 | 1007.1 |
| 20260505083044 | 17 | 235 | 4.8 | 14.5 | 0.00 | 0.00 | 0.00 | 62 | 1007.0 |
| 20260505081550 | 17 | 273 | 4.8 | 12.9 | 0.00 | 0.00 | 0.00 | 61 | 1006.6 |
| 20260505080041 | 17 | 271 | 6.4 | 14.5 | 0.00 | 0.00 | 0.00 | 61 | 1006.4 |
| 20260505074541 | 17 | 221 | 6.4 | 16.1 | 0.00 | 0.00 | 0.00 | 60 | 1006.5 |
| 20260505073033 | 17 | 235 | 6.4 | 14.5 | 0.00 | 0.00 | 0.00 | 60 | 1006.3 |
| 20260505071531 | 17 | 235 | 4.8 | 16.1 | 0.00 | 0.00 | 0.00 | 60 | 1006.1 |
| 20260505070039 | 18 | 287 | 6.4 | 20.9 | 0.00 | 0.00 | 0.00 | 60 | 1006.4 |
| 20260505064537 | 18 | 267 | 6.4 | 19.3 | 0.00 | 0.00 | 0.00 | 59 | 1006.5 |
| 20260505063041 | 18 | 240 | 8.0 | 19.3 | 0.00 | 0.00 | 0.00 | 58 | 1006.5 |
| 20260505061551 | 18 | 240 | 6.4 | 17.7 | 0.00 | 0.00 | 0.00 | 58 | 1006.4 |
| 20260505060034 | 18 | 224 | 6.4 | 14.5 | 0.00 | 0.00 | 0.00 | 57 | 1006.0 |
| 20260505054536 | 18 | 233 | 8.0 | 17.7 | 0.00 | 0.00 | 0.00 | 57 | 1005.8 |
| 20260505053038 | 18 | 243 | 8.0 | 16.1 | 0.00 | 0.00 | 0.00 | 58 | 1005.8 |
| 20260505051535 | 18 | 248 | 6.4 | 20.9 | 0.00 | 0.00 | 0.00 | 59 | 1005.8 |
| 20260505041532 | 18 | 258 | 6.4 | 11.3 | 0.00 | 0.00 | 0.00 | 58 | 1006.4 |
| 20260505040038 | 19 | 244 | 6.4 | 16.1 | 0.00 | 0.00 | 0.00 | 58 | 1006.5 |
| 20260505034530 | 18 | 248 | 4.8 | 14.5 | 0.00 | 0.00 | 0.00 | 59 | 1006.4 |
| 20260505033045 | 19 | 280 | 4.8 | 11.3 | 0.00 | 0.00 | 0.00 | 58 | 1006.5 |
| 20260505031532 | 19 | 227 | 4.8 | 16.1 | 0.00 | 0.00 | 0.00 | 58 | 1006.4 |
| 20260505030030 | 19 | 256 | 4.8 | 11.3 | 0.00 | 0.00 | 0.00 | 58 | 1006.2 |
| 20260505024552 | 19 | 267 | 4.8 | 12.9 | 0.00 | 0.00 | 0.00 | 59 | 1006.0 |
| 20260505023037 | 19 | 247 | 3.2 | 6.4 | 0.00 | 0.00 | 0.00 | 59 | 1005.7 |
| 20260505021544 | 19 | 233 | 3.2 | 9.7 | 0.00 | 0.00 | 0.00 | 59 | 1005.5 |
| 20260505020039 | 19 | 230 | 3.2 | 6.4 | 0.00 | 0.00 | 0.00 | 59 | 1005.3 |
| 20260505014532 | 19 | 254 | 3.2 | 8.0 | 0.00 | 0.00 | 0.00 | 59 | 1004.9 |
| 20260505013033 | 20 | 232 | 1.6 | 6.4 | 0.00 | 0.00 | 0.00 | 59 | 1004.9 |
| 20260505011542 | 20 | 204 | 3.2 | 9.7 | 0.00 | 0.00 | 0.00 | 58 | 1004.9 |
| 20260505010031 | 20 | 244 | 1.6 | 4.8 | 0.00 | 0.00 | 0.00 | 58 | 1004.9 |
| 20260505004541 | 20 | 212 | 3.2 | 9.7 | 0.00 | 0.00 | 0.00 | 57 | 1004.8 |
| 20260505003032 | 21 | 231 | 3.2 | 12.9 | 0.00 | 0.00 | 0.00 | 55 | 1004.8 |
| 20260505001533 | 21 | 275 | 3.2 | 9.7 | 0.00 | 0.00 | 0.00 | 54 | 1005.0 |
| 20260505000030 | 22 | 265 | 6.4 | 14.5 | 0.00 | 0.00 | 0.00 | 52 | 1005.1 |
| 20260504234530 | 22 | 279 | 4.8 | 11.3 | 0.00 | 0.00 | 0.00 | 51 | 1005.1 |
| 20260504233030 | 22 | 292 | 6.4 | 14.5 | 0.00 | 0.00 | 0.00 | 48 | 1005.5 |
| 20260504231532 | 23 | 230 | 6.4 | 12.9 | 0.00 | 0.00 | 0.00 | 48 | 1005.7 |
| 20260504230031 | 23 | 238 | 4.8 | 17.7 | 0.00 | 0.00 | 0.00 | 48 | 1005.8 |
| 20260504224530 | 23 | 235 | 6.4 | 22.5 | 0.00 | 0.00 | 0.00 | 46 | 1005.9 |
| 20260504223036 | 23 | 226 | 11.3 | 25.7 | 0.00 | 0.00 | 0.00 | 46 | 1006.0 |
| 20260504221536 | 24 | 248 | 11.3 | 37.0 | 0.00 | 0.00 | 0.00 | 44 | 1006.1 |
| 20260504220032 | 25 | 249 | 9.7 | 22.5 | 0.00 | 0.00 | 0.00 | 44 | 1006.0 |
| 20260504214529 | 25 | 247 | 11.3 | 24.1 | 0.00 | 0.00 | 0.00 | 45 | 1006.1 |
| 20260504213030 | 26 | 253 | 9.7 | 29.0 | 0.00 | 0.00 | 0.00 | 44 | 1006.0 |
| 20260504211530 | 25 | 242 | 9.7 | 25.7 | 0.00 | 0.00 | 0.00 | 46 | 1006.5 |
| 20260504210032 | 25 | 216 | 6.4 | 12.9 | 0.00 | 0.00 | 0.00 | 49 | 1006.6 |
| 20260504204546 | 23 | 229 | 4.8 | 12.9 | 0.00 | 0.00 | 0.00 | 50 | 1006.6 |
| 20260504203034 | 25 | 253 | 4.8 | 11.3 | 0.00 | 0.00 | 0.00 | 51 | 1006.8 |
| 20260504201529 | 23 | 236 | 6.4 | 17.7 | 0.00 | 0.00 | 0.00 | 51 | 1007.0 |
| 20260504200036 | 23 | 238 | 4.8 | 16.1 | 0.00 | 0.00 | 0.00 | 53 | 1007.3 |
| 20260504194537 | 23 | 235 | 6.4 | 19.3 | 0.00 | 0.00 | 0.00 | 53 | 1007.5 |
| 20260504193032 | 23 | 241 | 6.4 | 16.1 | 0.00 | 0.00 | 0.00 | 55 | 1007.6 |
| 20260504191530 | 23 | 237 | 4.8 | 14.5 | 0.00 | 0.00 | 0.00 | 55 | 1007.9 |
| 20260504190037 | 23 | 235 | 8.0 | 14.5 | 0.00 | 0.00 | 0.00 | 53 | 1008.2 |
| 20260504184536 | 22 | 227 | 6.4 | 16.1 | 0.00 | 0.00 | 0.00 | 61 | 1008.4 |
| 20260504183032 | 21 | 242 | 4.8 | 17.7 | 0.00 | 0.00 | 0.00 | 59 | 1008.6 |
| 20260504181539 | 21 | 246 | 6.4 | 19.3 | 0.00 | 0.00 | 0.00 | 59 | 1008.4 |
| 20260504180031 | 21 | 281 | 8.0 | 17.7 | 0.00 | 0.00 | 0.00 | 58 | 1008.2 |
| 20260504174533 | 21 | 248 | 6.4 | 19.3 | 0.00 | 0.00 | 0.00 | 61 | 1008.2 |
| 20260504173032 | 20 | 271 | 6.4 | 30.6 | 0.00 | 0.00 | 0.00 | 63 | 1008.2 |
| 20260504171530 | 19 | 244 | 4.8 | 20.9 | 0.00 | 0.00 | 0.00 | 64 | 1008.2 |